Regional Weather Roundup
Issued by NWS

Home | Current Version | Previous Version | Text Only | Print | Product List | Glossary On
Versions: 1 2 3 4 5 6 7 8 9 10 11 12 13 14 15 16 17 18 19 20 21 22 23 24 25 26 27 28 29 30 31 32 33 34 35 36 37 38 39 40 41 42 43 44 45 46 47 48 49 50
000
ASUS45 KCYS 060510
RWRWY

WYOMING REGIONAL WEATHER ROUNDUP
NATIONAL WEATHER SERVICE CHEYENNE WY
1000 PM MST THU MAR 05 2015

NOTE:  "FAIR" INDICATES FEW OR NO CLOUDS BELOW 12,000 FEET
WITH NO SIGNIFICANT WEATHER AND/OR OBSTRUCTIONS TO VISIBILITY.

WYZ001-060600-
YELLOWSTONE NATIONAL PARK

CITY           SKY/WX    TMP DP  RH WIND       PRES   REMARKS
LK YELLOWSTONE   N/A     13   6  74 CALM      30.35R
W YELLOWSTONE  NOT AVBL

$$
WYZ002>013-054>058-071-098>099-060600-
NORTHERN WYOMING

CITY           SKY/WX    TMP DP  RH WIND       PRES   REMARKS
JACKSON        FAIR      28  14  54 S12       30.34R WCI  18
CODY           FAIR      41  10  28 W16G30    30.18S
GREYBULL       FAIR      29  17  61 SE3       30.22F
WORLAND        FAIR      30  17  58 CALM      30.22R
SHERIDAN       FAIR      31  20  63 CALM      30.15F
BUFFALO        FAIR      33  14  45 SW5       30.16S WCI  29
GILLETTE       FAIR      34  17  50 SW14      30.15S WCI  25
HULETT         FAIR      34  19  55 SW10      30.14S WCI  26
NEWCASTLE      FAIR      27  16  63 CALM      30.18R

$$
WYZ014>020-022>026-101>103-060600-
CENTRAL WYOMING

CITY           SKY/WX    TMP DP  RH WIND       PRES   REMARKS
BIG PINEY      FAIR      22  14  71 N12       30.34S WCI  10
PINEDALE       FAIR      14   9  79 W7        30.35S WCI   4
DUBOIS         FAIR      21  10  63 NW15      30.28R WCI   8
LANDER         FAIR      19  12  74 CALM      30.22S
RIVERTON       FAIR      17   8  67 SW10      30.23S WCI   5
CASPER         MOCLDY    30  20  66 SW14      30.22R WCI  19
DOUGLAS        MOCLDY    16  11  80 CALM      30.21S

$$
WYZ021-027>030-104>119-060600-
SOUTHERN WYOMING

CITY           SKY/WX    TMP DP  RH WIND       PRES   REMARKS
EVANSTON       FAIR      23  13  65 SW10      30.40R WCI  12
FORT BRIDGER   FAIR      29  15  56 SW9       30.41R WCI  21
ROCK SPRINGS   FAIR      28  16  60 S15       30.34  WCI  16
DIXON          FAIR      23  16  74 CALM      30.40R
RAWLINS        FAIR      28  15  58 W18       30.28R WCI  15
SARATOGA       MOCLDY    23  14  68 SE9       30.33R WCI  13
LARAMIE        FAIR      20  10  65 VRB5      30.25R WCI  13
CHEYENNE       FAIR      31  14  49 SW8       30.23S WCI  23
TORRINGTON     FAIR      29  19  66 W5        30.22R WCI  24
PINE BLUFFS    FAIR      28  19  69 W8        30.24F WCI  20

$$


USA.gov is the U.S. government's official web portal to all federal, state and local government web resources and services.